OE3GWU-13 Weather Reports


time (UTC)temp
F
wind
direction
speed
knots
gust
knots
rain 1hr
in
rain 24hr
in
rain mn
in
humidity
%
barometer
mb
20260507061004 46 204 2.6 5.2 0.00 0.00 0.00 90 1015.6
20260507060004 45 207 0.0 2.6 0.00 0.00 0.00 91 1015.6
20260507053005 46 294 0.9 5.2 0.00 0.00 0.00 92 1015.0
20260507050005 44 332 1.7 5.2 0.00 0.00 0.00 93 1014.6
20260507044004 44 306 2.6 4.3 0.00 0.00 0.00 94 1014.6
20260507043004 44 307 1.7 1.7 0.00 0.00 0.00 94 1014.6
20260507041004 44 334 1.7 5.2 0.00 0.00 0.00 94 1014.2
20260507034004 44 233 1.7 5.2 0.00 0.01 0.00 96 1013.9
20260507033004 44 275 1.7 5.2 0.00 0.01 0.00 96 1013.9
20260507025004 45 331 0.9 2.6 0.00 0.01 0.00 95 1013.5
20260507024004 45 271 1.7 2.6 0.00 0.01 0.00 95 1013.9
20260507023004 45 242 0.9 4.3 0.00 0.01 0.00 95 1013.5
20260507022004 46 188 0.9 5.2 0.00 0.01 0.00 95 1013.5
20260507014004 46 299 1.7 4.3 0.00 0.01 0.00 95 1013.5
20260507013004 46 216 1.7 2.6 0.00 0.01 0.00 95 1013.5
20260507012004 47 304 0.9 2.6 0.00 0.01 0.00 95 1013.5
20260507011004 47 192 1.7 4.3 0.00 0.01 0.00 95 1013.2
20260507010005 47 332 1.7 4.3 0.00 0.01 0.00 95 1013.2
20260507004004 47 345 0.0 2.6 0.00 0.01 0.00 95 1013.2
20260507001004 48 320 0.9 2.6 0.00 0.01 0.00 95 1013.2
20260507000004 48 205 1.7 4.3 0.00 0.01 0.00 95 1013.2
20260506234004 48 258 2.6 7.0 0.00 0.01 0.01 95 1013.2
20260506233004 48 344 1.7 5.2 0.00 0.01 0.01 95 1013.2
20260506232004 48 209 1.7 7.0 0.00 0.01 0.01 95 1013.2
20260506230004 48 201 2.6 5.2 0.00 0.01 0.01 94 1012.9
20260506225004 49 212 2.6 7.0 0.00 0.01 0.01 94 1012.9
20260506224004 49 335 1.7 4.3 0.00 0.01 0.01 94 1012.9
20260506222004 49 222 1.7 4.3 0.00 0.01 0.01 94 1012.9
20260506220004 49 181 1.7 6.1 0.00 0.01 0.01 95 1012.5
20260506215006 49 290 2.6 7.0 0.00 0.01 0.01 94 1012.2
20260506214004 49 227 1.7 6.1 0.00 0.01 0.01 93 1012.2
20260506212043 49 315 0.9 0.9 0.00 0.01 0.01 90 1011.9
20260506211004 49 322 0.0 0.9 0.00 0.01 0.01 90 1011.5
20260506210004 49 345 0.0 2.6 0.00 0.01 0.01 91 1011.5
20260506205004 49 236 1.7 2.6 0.00 0.02 0.01 92 1011.9
20260506203004 50 7 0.9 1.7 0.00 0.02 0.01 91 1011.2
20260506202004 51 329 0.9 1.7 0.00 0.02 0.01 89 1011.2
20260506195004 52 36 0.9 4.3 0.00 0.02 0.01 82 1010.8
20260506194004 53 143 2.6 4.3 0.00 0.02 0.01 83 1010.8
20260506193004 53 99 1.7 6.1 0.00 0.02 0.01 82 1010.7
20260506192004 54 194 0.9 4.3 0.00 0.02 0.01 80 1010.5
20260506190005 59 328 0.9 2.6 0.00 0.02 0.01 58 1009.8
20260506185004 59 333 2.6 6.1 0.00 0.02 0.01 57 1009.5
20260506184004 60 191 4.3 7.0 0.00 0.02 0.01 55 1009.5
20260506183005 60 262 4.3 7.0 0.00 0.02 0.01 55 1009.1
20260506182004 60 201 2.6 5.2 0.00 0.02 0.01 56 1008.5
20260506175004 62 275 2.6 4.3 0.00 0.02 0.01 52 1008.8
20260506171004 64 209 2.6 5.2 0.00 0.02 0.01 49 1008.5
20260506170004 64 210 4.3 5.2 0.00 0.02 0.01 48 1008.5
20260506164004 64 238 4.3 8.7 0.00 0.02 0.01 47 1008.5
20260506163004 65 204 6.1 8.7 0.00 0.02 0.01 48 1008.8
20260506162004 65 221 2.6 2.6 0.00 0.02 0.01 50 1008.8
20260506161004 66 208 1.7 5.2 0.00 0.02 0.01 50 1008.8
20260506160005 66 233 2.6 4.3 0.00 0.02 0.01 48 1008.8
20260506155004 65 196 1.7 4.3 0.00 0.02 0.01 49 1009.1
20260506154004 64 277 1.7 1.7 0.00 0.02 0.01 50 1009.1
20260506153004 64 211 1.7 2.6 0.00 0.02 0.01 49 1009.1
20260506151004 64 247 2.6 4.3 0.00 0.02 0.01 48 1009.6
20260506145004 65 274 1.7 4.3 0.00 0.02 0.01 49 1009.5
20260506143004 65 329 3.5 6.1 0.00 0.02 0.01 46 1009.8
20260506141004 65 315 1.7 8.7 0.00 0.02 0.01 44 1009.8
20260506140005 67 196 4.3 6.1 0.00 0.02 0.01 45 1009.8
20260506134004 70 156 2.6 5.2 0.00 0.02 0.01 43 1009.8
20260506133005 70 203 2.6 5.2 0.00 0.02 0.01 43 1009.8
20260506130005 66 186 5.2 8.7 0.00 0.02 0.01 47 1010.2
20260506125006 68 196 1.7 7.0 0.00 0.02 0.01 45 1010.2
20260506124004 66 230 5.2 7.0 0.00 0.02 0.01 46 1010.5
20260506123004 65 165 2.6 4.3 0.00 0.02 0.01 47 1010.8
20260506122004 70 223 2.6 5.2 0.00 0.02 0.01 44 1010.5
20260506121004 66 198 1.7 5.2 0.00 0.02 0.01 51 1010.8
20260506115004 66 170 4.3 10.4 0.00 0.02 0.01 47 1010.8
20260506112004 63 188 2.6 7.8 0.00 0.02 0.01 53 1011.5
20260506111004 63 248 6.1 7.8 0.00 0.02 0.01 53 1011.5
20260506110004 63 227 4.3 5.2 0.00 0.02 0.01 57 1011.5
20260506104004 63 222 5.2 6.1 0.00 0.02 0.01 60 1011.5
20260506103004 64 232 4.3 5.2 0.00 0.02 0.01 58 1011.9
20260506101004 62 243 1.7 5.2 0.00 0.02 0.01 61 1011.9
20260506093004 62 215 2.6 4.3 0.00 0.02 0.01 61 1011.9
20260506091004 61 196 1.7 2.6 0.00 0.02 0.01 60 1012.2
20260506090004 60 341 1.7 2.6 0.00 0.02 0.01 62 1012.2
20260506082004 59 253 3.5 5.2 0.00 0.02 0.01 71 1012.5
20260506072004 55 215 2.6 5.2 0.00 0.02 0.01 77 1012.2
20260506062004 53 250 1.7 2.6 0.00 0.02 0.01 87 1012.5